SL-12 R/B(AUX MOTOR), 15338

Orbit data source: Space-Track

SL-12 R/B(AUX MOTOR), 15338 is space debris in LEO originally from a launch on Fri, 28 Sep 1984 UTC launched from the Tyuratam Missile And Space Complex (TTMTR). Debris objects in space refer to the collection of defunct objects orbiting the Earth. Examples of debris include non-operational satellites, rocket bodies, and fragments generated from explosions, collisions, or faulty payload assembly.

Loading next visibility...
Identifier
15338, 1984-106F
Orbit
LEO
Last TLE update
20 hours ago
Origin
Manufacturer
NPO Energiya
Mission
Spacecraft
Bus & Motor
SOZ, Unknown motor
Mass
110 kg wet, 56 kg dry
Launch date (UTC)
1984-09-28 (41 years ago)
Launch vehicle
Unknown
Launch site
Tyuratam Missile And Space Complex (TTMTR)
Object type
Payload
Rocket body
Debris
Shape & HBR
Cyl, 1.1 m
Radar Cross Section
0.660 m², Medium (>0.1 m² and < 1m²)

Expand to show TLE details & history

TLE from 20 hours ago
0 SL-12 R/B(AUX MOTOR)
1 15338U 84106F   25186.09252406  .00000180  00000-0  12595-3 0  9993
2 15338  66.5712  83.9362 0016743 222.8178 137.1611 14.19143778108971
Epoch: 2025-07-05T02:13Z
TLE epoch observation values (Epoch: 2025-07-05T02:13:14.078Z)
Latitude
0.00001°
Longitude
127.29202°
Altitude
839.194 km
Speed
7.429 km/s
True Right ascension
05h 35m 44s
True Declination
0° 00' 00"
Sunlit
Object was in daylight at epoch
Visualization orbit readout
Latitude
-60.36561°
Longitude
75.88074°
Altitude
845.868 km
Speed
7.432 km/s
Apparent Right ascension
23h 47m 46s
Apparent Declination
-54° 34' 35"
Sunlit
Object is in daylight
Visualization observer readout
Local Sidereal Time
10:07:06
Azimuth
220.519° SW
Elevation
-67.706°
Doppler factor
1
Orbital elements
Apogee altitude
838.711 km
Perigee altitude
814.585 km
Semi-major axis
7,204.785 km
Eccentricity
0.00167
Inclination
66.5712°
RAAN
83.9362°
Arg. of periapsis
222.8178°
True anomaly
Unknown
Mean anomaly
137.1611°
Eccentric anomaly
Unknown
Mean motion
3.54905 °/min
Orbital period
101.44 mins
BSTAR
0.00012595
Loading maneuver chart data...
Loading SW <> Apogee altitude chart data...
Loading historical data...
Loading historical data...
Loading historical data...
Loading historical data...
Loading historical data...
Loading historical data...
Loading historical data...

SL-12 R/B(AUX MOTOR) Visibility forecast

Observer location: undefined°, undefined°

Span
Click to sort rows by Start time (UTC) header in descending order
Start Az.
Max El. time (UTC)
Max El. Az.
Max El.
End time (UTC)
End Az.
7 mins2025-07-06 02:25:57.674Z4.916° NNE2025-07-06 02:28:57.674Z41.026° NE18.416°2025-07-06 02:32:57.674Z88.368° E
9 mins2025-07-06 04:09:57.674Z325.227° NNW2025-07-06 04:13:57.674Z254.409° W43.797°2025-07-06 04:18:57.674Z160.337° S
5 mins2025-07-06 17:15:57.674Z131.748° SE2025-07-06 17:17:57.674Z107.257° ESE16.764°2025-07-06 17:20:57.674Z71.678° E
9 mins2025-07-06 18:57:57.674Z223.282° SW2025-07-06 19:01:57.674Z309.253° NW42.305°2025-07-06 19:06:57.674Z23.154° NE
|